[[{"header":{"parameterUnit":"m.s-1","parameterCategory":1,"la1":30.2991,"la2":30.254,"lo1":-89.0895,"lo2":-89.0444,"dy":0.0017,"dx":0.0017,"nx":28,"ny":28,"refTime":"2023-09-26T21:00:00:Z","depth":0,"parameterNumber":2,"parameterNumberName":"U-component_of_WINDS"},"data":[0,0,0,0,0,0,0,0,0,0,0,0,0,0,0,0,0,0,0,0,0,0,0,0,0,0,0,0,0,0,0,0,0,0,0,0,0,0,0,0,0,0,0,0,0,0,0,0,0,0,0,0,0,0,0,0,0,0,-3.3176,-3.3177,0,-3.324,-3.3241,-3.3241,-3.3228,-3.3227,-3.3226,-3.3225,-3.3283,-3.3286,-3.3288,0,0,0,0,0,0,0,0,0,0,0,0,0,-3.3039,-3.3042,-3.3176,-3.3177,-3.3178,-3.324,-3.3241,-3.3242,-3.3228,-3.3227,-3.3226,-3.3224,-3.3282,-3.3286,-3.3289,0,0,0,0,0,0,0,0,0,0,0,0,0,-3.31,-3.3043,-3.3176,-3.3179,-3.318,-3.324,-3.3241,-3.3242,-3.3229,-3.3227,-3.3225,-3.3224,-3.3281,-3.3285,-3.3289,-3.3348,0,0,-3.3301,-3.3303,0,0,0,0,0,0,0,0,-3.3097,-3.3105,-3.3178,-3.3179,-3.318,-3.3225,-3.3214,-3.3277,-3.3229,-3.321,-3.3225,-3.3223,-3.3265,-3.327,-3.3285,-3.3351,-3.3353,-3.3302,-3.3304,-3.3306,-3.3307,0,0,0,0,0,0,0,-3.3093,-3.3102,-3.3201,-3.3179,-3.318,-3.3176,-3.3182,-3.3226,-3.3246,-3.3211,-3.3211,-3.3219,-3.3265,-3.3282,-3.3287,-3.3354,-3.3301,-3.3305,-3.3307,-3.3309,-3.3473,-3.3474,0,0,0,0,0,0,-3.3088,-3.3099,-3.3199,-3.3203,-3.3134,-3.318,-3.3187,-3.3212,-3.3246,-3.3249,-3.322,-3.3218,-3.3276,-3.3282,-3.3289,-3.336,-3.3306,-3.3309,-3.3312,-3.3471,-3.3473,-3.3475,0,0,0,0,0,0,-3.3085,-3.3097,-3.3197,-3.3151,-3.3163,-3.3184,-3.3212,-3.3214,-3.3231,-3.3252,-3.3255,-3.3234,-3.3275,-3.3283,-3.3334,-3.3362,-3.3311,-3.3315,-3.3468,-3.3471,-3.3474,-3.3502,0,0,0,0,0,0,-3.3081,-3.3096,-3.3119,-3.3152,-3.3166,-3.3242,-3.3213,-3.3216,-3.3238,-3.3236,-3.3266,-3.3269,-3.3274,-3.3328,-3.3338,-3.3366,-3.3318,-3.3466,-3.347,-3.3473,-3.3499,-3.3506,-3.3512,0,0,0,0,0,-3.3077,-3.3123,-3.3121,-3.3133,-3.3196,-3.3244,-3.3252,-3.3258,-3.3241,-3.3263,-3.3278,-3.3268,-3.3358,-3.3334,-3.3345,-3.3374,-3.3464,-3.3469,-3.3473,-3.3496,-3.3505,-3.3512,0,0,0,0,0,0,-3.3089,-3.3127,-3.3125,-3.3183,-3.3211,-3.3241,-3.327,-3.3267,-3.3298,-3.3294,-3.3299,-3.3306,-3.3358,-3.3372,-3.3344,-3.3434,-3.3408,-3.3415,-3.3422,-3.3431,-3.3437,-3.3431,-3.3321,0,0,0,0,0,-3.31,-3.3138,-3.3168,-3.3217,-3.3231,-3.3249,-3.327,-3.3273,-3.3301,-3.3311,-3.3329,-3.3355,-3.3389,-3.3411,-3.3444,-3.3503,-3.3508,-3.3529,-3.3535,-3.354,-3.3545,-3.3577,-3.3586,-3.349,-3.349,-3.349,0,0,-3.312,-3.3146,-3.3168,-3.322,-3.3242,-3.3279,-3.3258,-3.3298,-3.3326,-3.3317,-3.3366,-3.3381,-3.341,-3.3466,-3.3491,-3.3478,-3.3574,-3.3546,-3.355,-3.3552,-3.3583,-3.3592,-3.36,-3.3493,-3.3492,-3.3492,0,0,-3.3176,-3.32,-3.3244,-3.3267,-3.3302,-3.3314,-3.3325,-3.3357,-3.3367,-3.3418,-3.3413,-3.3445,-3.3504,-3.3525,-3.3543,-3.3613,-3.3605,-3.3624,-3.3655,-3.3687,-3.3695,-3.3701,-3.3724,-3.3733,-3.3629,-3.3629,-3.3629,0,-3.3196,-3.3254,-3.3266,-3.3308,-3.333,-3.3329,-3.3372,-3.3394,-3.3436,-3.3451,-3.3438,-3.3514,-3.3533,-3.3593,-3.3611,-3.3627,-3.3638,-3.3618,-3.3693,-3.37,-3.3706,-3.3728,-3.3737,-3.3631,-3.3631,-3.3631,-3.363,0,-3.3276,-3.3317,-3.3348,-3.3393,-3.3419,-3.3462,-3.3479,-3.3505,-3.3508,-3.3521,-3.3573,-3.3597,-3.3635,-3.3651,-3.3652,-3.3712,-3.3703,-3.3692,-3.3666,-3.3717,-3.3738,-3.3747,-3.3634,-3.3633,-3.3633,-3.3632,0,0,-3.3336,-3.3391,-3.3402,-3.3423,-3.3463,-3.3494,-3.3537,-3.3578,-3.3599,-3.363,-3.3665,-3.3717,-3.3708,-3.3729,-3.3733,-3.3762,-3.3814,-3.3747,-3.3747,-3.3756,-3.388,-3.3886,-3.3896,-3.3811,-3.3813,-3.3814,-3.3877,0,-3.3394,-3.3472,-3.3486,-3.3553,-3.3591,-3.3592,-3.363,-3.3658,-3.3673,-3.3706,-3.3722,-3.3759,-3.3744,-3.3757,-3.3786,-3.3802,-3.3838,-3.3798,-3.3841,-3.3842,-3.383,-3.3907,-3.3913,-3.3971,-3.3886,-3.3887,-3.3888,0,-3.347,-3.3507,-3.3579,-3.3617,-3.3633,-3.3667,-3.3706,-3.3738,-3.3771,-3.378,-3.3806,-3.3809,-3.3852,-3.3828,-3.3888,-3.386,-3.388,-3.3891,-3.3893,-3.3894,-3.3866,-3.3908,-3.399,-3.3998,-3.3901,-3.39,-3.3899,0,-3.3505,-3.3572,-3.3624,-3.3642,-3.3688,-3.3712,-3.3732,-3.3763,-3.3787,-3.3821,-3.3837,-3.3875,-3.3895,-3.3924,-3.3936,-3.3918,-3.3995,-3.3972,-3.4002,-3.4002,-3.4014,-3.4013,-3.4098,-3.4033,-3.4032,-3.4032,-3.4032,0,-3.3566,-3.3609,-3.3641,-3.3672,-3.3721,-3.3738,-3.3785,-3.3804,-3.3833,-3.3867,-3.3872,-3.3903,-3.392,-3.3954,-3.3964,-3.4012,-3.4021,-3.4028,-3.403,-3.4026,-3.4025,-3.4036,-3.4031,-3.4035,-3.4034,-3.4034,-3.4033,0,-3.361,-3.3633,-3.369,-3.3731,-3.3743,-3.3777,-3.3811,-3.3841,-3.3859,-3.3902,-3.3913,-3.3939,-3.398,-3.3997,-3.4046,-3.4053,-3.4107,-3.4107,-3.4096,-3.4096,-3.4124,-3.4121,-3.4217,-3.423,-3.4158,-3.4159,-3.416,0,-3.3646,-3.368,-3.3726,-3.3751,-3.3773,-3.3813,-3.3839,-3.3857,-3.3884,-3.3926,-3.3951,-3.3993,-3.4026,-3.4092,-3.4113,-3.4152,-3.4151,-3.4182,-3.4156,-3.4152,-3.4148,-3.4145,-3.4148,-3.4185,-3.4186,-3.4187,-3.4187,0,-3.3706,-3.3717,-3.3756,-3.3799,-3.3831,-3.3866,-3.3899,-3.3919,-3.3942,-3.3972,-3.4016,-3.4043,-3.4095,-3.4136,-3.4176,-3.4195,-3.4194,-3.4196,-3.4205,-3.4199,-3.4191,-3.4194,-3.4106,-3.4193,-3.4192,-3.4192,-3.4191,-3.4191,-3.3745,-3.3776,-3.3815,-3.3858,-3.3887,-3.3919,-3.395,-3.3973,-3.4011,-3.4056,-3.4066,-3.4112,-3.4145,-3.42,-3.4221,-3.4256,-3.4248,-3.4261,-3.4263,-3.4266,-3.4266,-3.4189,-3.4264,-3.4264,-3.4264,-3.4264,-3.4264,0,-3.3804,-3.3831,-3.3871,-3.392,-3.3954,-3.3956,-3.3994,-3.4021,-3.4063,-3.4096,-3.4131,-3.4182,-3.4223,-3.425,-3.4291,-3.4314,-3.4315,-3.4324,-3.432,-3.4325,-3.4272,-3.426,-3.4322,-3.4322,-3.4322,-3.4322,-3.4322,-3.4322,-3.3838,-3.3891,-3.3908,-3.3974,-3.4,-3.4047,-3.4069,-3.4099,-3.4125,-3.4183,-3.4218,-3.4237,-3.4268,-3.4312,-3.4349,-3.4356,-3.4369,-3.4379,-3.4385,-3.4334,-3.4328,-3.4322,-3.431,-3.4382,-3.4382,-3.4434,-3.4434,-3.4434]},{"header":{"parameterUnit":"m.s-1","parameterCategory":1,"la1":30.2991,"la2":30.254,"lo1":-89.0895,"lo2":-89.0444,"dy":0.0017,"dx":0.0017,"nx":28,"ny":28,"refTime":"2023-09-26T21:00:00:Z","depth":0,"parameterNumber":3,"parameterNumberName":"V-component_of_WINDS"},"data":[0,0,0,0,0,0,0,0,0,0,0,0,0,0,0,0,0,0,0,0,0,0,0,0,0,0,0,0,0,0,0,0,0,0,0,0,0,0,0,0,0,0,0,0,0,0,0,0,0,0,0,0,0,0,0,0,0,0,1.4592,1.4594,0,1.4708,1.4709,1.471,1.4751,1.4751,1.475,1.475,1.4856,1.4859,1.4862,0,0,0,0,0,0,0,0,0,0,0,0,0,1.4393,1.4397,1.4592,1.4594,1.4595,1.4708,1.4709,1.4711,1.4751,1.4751,1.475,1.475,1.4855,1.4858,1.4862,0,0,0,0,0,0,0,0,0,0,0,0,0,1.4491,1.4398,1.4592,1.4629,1.4634,1.4707,1.4709,1.4711,1.4751,1.4751,1.475,1.475,1.4853,1.4858,1.4863,1.4904,0,0,1.4877,1.4879,0,0,0,0,0,0,0,0,1.4485,1.4498,1.4622,1.4627,1.4632,1.4715,1.4678,1.4775,1.4752,1.4706,1.475,1.4749,1.4808,1.4817,1.4839,1.4909,1.4913,1.4878,1.4881,1.4883,1.4884,0,0,0,0,0,0,0,1.4478,1.4493,1.4638,1.4624,1.463,1.4636,1.4649,1.4697,1.4759,1.471,1.4713,1.4727,1.4811,1.4835,1.4842,1.4915,1.4878,1.4882,1.4885,1.4887,1.5022,1.5023,0,0,0,0,0,0,1.4467,1.4487,1.4634,1.4641,1.4556,1.464,1.4655,1.4689,1.4759,1.4769,1.4728,1.4729,1.4827,1.4837,1.4846,1.4899,1.4883,1.4887,1.489,1.5022,1.5022,1.5023,0,0,0,0,0,0,1.4463,1.448,1.4629,1.4565,1.4585,1.4644,1.4682,1.4691,1.4715,1.4772,1.4782,1.4742,1.4827,1.4839,1.489,1.4903,1.4889,1.4894,1.5021,1.5022,1.5023,1.5004,0,0,0,0,0,0,1.4457,1.4478,1.4498,1.4566,1.4588,1.4675,1.4683,1.4694,1.4725,1.4727,1.4788,1.4797,1.4827,1.4883,1.4895,1.4909,1.4897,1.502,1.5021,1.5022,1.5004,1.5004,1.5005,0,0,0,0,0,1.445,1.4485,1.4498,1.4516,1.4614,1.4676,1.4688,1.4726,1.4726,1.4744,1.478,1.4795,1.49,1.4887,1.4901,1.4917,1.5019,1.5021,1.5022,1.5003,1.5004,1.5005,0,0,0,0,0,0,1.4412,1.4495,1.451,1.457,1.4616,1.4683,1.4706,1.4726,1.477,1.477,1.4811,1.4824,1.4871,1.4899,1.4884,1.496,1.496,1.4964,1.494,1.4942,1.4942,1.4934,1.4901,0,0,0,0,0,1.4412,1.4459,1.4527,1.4572,1.4595,1.4647,1.4675,1.47,1.4748,1.4767,1.4806,1.4849,1.4891,1.4918,1.496,1.5008,1.502,1.5025,1.5026,1.5026,1.5029,1.5055,1.5058,1.5029,1.5029,1.5029,0,0,1.4409,1.446,1.4487,1.4566,1.4605,1.4649,1.4663,1.4708,1.4741,1.4772,1.4824,1.4854,1.4903,1.4953,1.4976,1.4977,1.504,1.5028,1.5028,1.5031,1.5057,1.506,1.5062,1.503,1.503,1.5029,0,0,1.4428,1.4472,1.4515,1.4555,1.4615,1.4649,1.4659,1.4724,1.4746,1.48,1.4824,1.486,1.4932,1.4967,1.4994,1.5025,1.504,1.5037,1.504,1.5064,1.5067,1.5069,1.5079,1.5082,1.504,1.504,1.504,0,1.4416,1.4489,1.4533,1.4579,1.4612,1.4647,1.4688,1.4723,1.4791,1.4811,1.4813,1.4905,1.494,1.4998,1.5006,1.5026,1.5036,1.503,1.5064,1.5066,1.5069,1.5079,1.5083,1.5039,1.5039,1.5039,1.5039,0,1.447,1.452,1.4546,1.4617,1.4653,1.4695,1.4743,1.4773,1.4795,1.4827,1.4879,1.4924,1.4975,1.499,1.5011,1.505,1.5049,1.5056,1.5057,1.507,1.508,1.5085,1.5038,1.5038,1.5039,1.5039,0,0,1.4468,1.4565,1.4574,1.4606,1.4675,1.4712,1.4755,1.481,1.4834,1.4879,1.4914,1.4975,1.4983,1.5013,1.5037,1.5059,1.5079,1.5063,1.5065,1.5064,1.5124,1.5118,1.5122,1.509,1.5091,1.5092,1.5119,0,1.4496,1.458,1.4621,1.4685,1.473,1.4763,1.48,1.4844,1.4875,1.4914,1.4947,1.4989,1.4996,1.5015,1.5038,1.5072,1.5092,1.5071,1.512,1.5121,1.5106,1.5127,1.5121,1.5146,1.5124,1.5124,1.5125,0,1.4539,1.459,1.466,1.4724,1.4744,1.4777,1.483,1.4868,1.4917,1.4938,1.4973,1.4997,1.5039,1.5036,1.5094,1.5078,1.51,1.512,1.5121,1.5127,1.5124,1.5132,1.5154,1.5158,1.5132,1.5131,1.5131,0,1.453,1.4615,1.4668,1.4695,1.4771,1.4793,1.4825,1.4874,1.4904,1.4948,1.4968,1.5015,1.504,1.5074,1.5108,1.5104,1.5162,1.5162,1.5177,1.5176,1.5188,1.5186,1.5213,1.5202,1.5202,1.5202,1.5202,0,1.4556,1.4597,1.4666,1.4698,1.4744,1.4789,1.4831,1.4865,1.4908,1.4944,1.4974,1.5006,1.5051,1.5087,1.5114,1.5156,1.5167,1.5183,1.5189,1.518,1.5178,1.5195,1.5194,1.5203,1.5203,1.5203,1.5203,0,1.4554,1.4602,1.4662,1.473,1.4748,1.4778,1.4834,1.4865,1.4898,1.4943,1.4956,1.5006,1.5051,1.509,1.5147,1.5165,1.5208,1.5216,1.5193,1.5197,1.5209,1.5207,1.5247,1.5254,1.5239,1.5239,1.5239,0,1.4568,1.4601,1.4674,1.4703,1.4736,1.4781,1.4813,1.4857,1.4888,1.4947,1.4969,1.5017,1.5058,1.5127,1.5166,1.5209,1.5218,1.5229,1.5225,1.5214,1.5217,1.5215,1.5218,1.5229,1.5229,1.5229,1.5229,0,1.4586,1.4609,1.4656,1.4712,1.4751,1.4795,1.484,1.486,1.4912,1.4944,1.4993,1.5025,1.5086,1.5132,1.518,1.5208,1.5225,1.523,1.5236,1.5226,1.5212,1.5219,1.5193,1.5229,1.5229,1.5229,1.5229,1.5229,1.4592,1.4623,1.468,1.4731,1.4771,1.4812,1.4845,1.4883,1.4926,1.4982,1.5004,1.5053,1.5099,1.5166,1.5194,1.523,1.5233,1.5241,1.5243,1.5244,1.5243,1.5207,1.5239,1.5239,1.5239,1.5239,1.5239,0,1.4612,1.4651,1.4698,1.4762,1.4802,1.482,1.487,1.4901,1.4945,1.4989,1.503,1.5084,1.5129,1.5172,1.5218,1.5238,1.5247,1.5249,1.5247,1.5253,1.5238,1.5229,1.524,1.524,1.524,1.524,1.524,1.524,1.4627,1.4681,1.4709,1.4781,1.4818,1.4871,1.4898,1.4934,1.497,1.5031,1.5071,1.51,1.5142,1.5191,1.5232,1.5243,1.5258,1.5257,1.5269,1.5255,1.5254,1.5253,1.5245,1.526,1.526,1.5282,1.5282,1.5282]}]]